Time,TemperatureF,DewpointF,PressureIn,WindDirection,WindDirectionDegrees,WindSpeedMPH,WindSpeedGustMPH,Humidity,HourlyPrecipIn,Conditions,Clouds,dailyrainin,SoftwareType,DateUTC
2013-07-04 00:01:00,64.0,63.0,29.97,SSE,161,0.0,0.0,96,0.00,,,0.10,,2013-07-04 05:01:00,
2013-07-04 00:12:00,64.0,63.0,29.97,SSE,158,0.0,3.0,96,0.00,,,0.10,,2013-07-04 05:12:00,
2013-07-04 00:22:00,64.0,63.0,29.97,SSE,158,0.0,3.0,96,0.00,,,0.10,,2013-07-04 05:22:00,
2013-07-04 00:33:00,64.0,63.0,29.96,SSE,158,0.0,2.0,96,0.00,,,0.10,,2013-07-04 05:33:00,
2013-07-04 00:43:00,64.0,63.0,29.97,SSE,158,0.0,1.0,96,0.00,,,0.10,,2013-07-04 05:43:00,
2013-07-04 00:52:00,64.0,63.0,29.97,SSE,158,0.0,3.0,97,0.00,,,0.10,,2013-07-04 05:52:00,
2013-07-04 01:01:00,64.0,63.0,29.97,SSE,158,0.0,3.0,97,0.00,,,0.10,,2013-07-04 06:01:00,
2013-07-04 01:11:00,64.0,63.0,29.97,SSE,158,0.0,0.0,97,0.00,,,0.10,,2013-07-04 06:11:00,
2013-07-04 01:22:00,64.0,63.0,29.98,SSE,158,0.0,0.0,97,0.00,,,0.10,,2013-07-04 06:22:00,
2013-07-04 01:34:00,64.0,63.0,29.98,SSE,158,0.0,0.0,97,0.00,,,0.10,,2013-07-04 06:34:00,
2013-07-04 01:43:00,64.0,63.0,29.98,SSE,158,0.0,0.0,97,0.00,,,0.10,,2013-07-04 06:43:00,
2013-07-04 01:52:00,64.0,63.0,29.97,SE,136,0.0,1.0,97,0.00,,,0.10,,2013-07-04 06:52:00,
2013-07-04 02:02:00,64.0,63.0,29.97,SE,136,0.0,1.0,97,0.00,,,0.10,,2013-07-04 07:02:00,
2013-07-04 02:12:00,64.0,63.0,29.96,WSW,245,0.0,3.0,97,0.00,,,0.10,,2013-07-04 07:12:00,
2013-07-04 02:22:00,64.0,63.0,29.97,WSW,237,3.0,4.0,97,0.00,,,0.10,,2013-07-04 07:22:00,
2013-07-04 02:34:00,64.0,63.0,29.97,WSW,237,3.0,4.0,97,0.00,,,0.10,,2013-07-04 07:34:00,
2013-07-04 02:43:00,64.0,63.0,29.97,WSW,237,3.0,4.0,97,0.00,,,0.10,,2013-07-04 07:43:00,
2013-07-04 02:52:00,64.0,63.0,29.97,WSW,237,3.0,4.0,97,0.00,,,0.10,,2013-07-04 07:52:00,
2013-07-04 03:02:00,64.0,63.0,29.96,WSW,242,0.0,3.0,97,0.00,,,0.10,,2013-07-04 08:02:00,
2013-07-04 03:11:00,64.0,63.0,29.96,WSW,242,0.0,3.0,97,0.00,,,0.10,,2013-07-04 08:11:00,
2013-07-04 03:22:00,63.0,62.0,29.96,SW,236,2.0,3.0,97,0.00,,,0.10,,2013-07-04 08:22:00,
2013-07-04 03:33:00,63.0,62.0,29.96,SW,236,2.0,3.0,97,0.00,,,0.10,,2013-07-04 08:33:00,
2013-07-04 03:42:00,63.0,62.0,29.96,SW,236,2.0,3.0,97,0.00,,,0.10,,2013-07-04 08:42:00,
2013-07-04 03:53:00,63.0,62.0,29.96,SW,236,3.0,3.0,97,0.00,,,0.10,,2013-07-04 08:53:00,
2013-07-04 04:02:00,63.0,62.0,29.96,SW,236,3.0,3.0,97,0.00,,,0.10,,2013-07-04 09:02:00,
2013-07-04 04:11:00,63.0,62.0,29.97,SW,236,2.0,3.0,98,0.00,,,0.10,,2013-07-04 09:11:00,
2013-07-04 04:22:00,63.0,62.0,29.97,SW,236,2.0,3.0,98,0.00,,,0.10,,2013-07-04 09:22:00,
2013-07-04 04:32:00,63.0,62.0,29.97,SW,236,2.0,3.0,98,0.00,,,0.10,,2013-07-04 09:32:00,
2013-07-04 04:42:00,63.0,62.0,29.97,SW,236,3.0,4.0,98,0.00,,,0.10,,2013-07-04 09:42:00,
2013-07-04 04:52:00,63.0,62.0,29.98,SW,236,3.0,4.0,98,0.00,,,0.10,,2013-07-04 09:52:00,
2013-07-04 05:01:00,63.0,62.0,29.98,SW,236,3.0,4.0,98,0.00,,,0.10,,2013-07-04 10:01:00,
2013-07-04 05:11:00,63.0,62.0,29.98,SW,236,3.0,4.0,98,0.00,,,0.10,,2013-07-04 10:11:00,
2013-07-04 05:22:00,62.0,61.0,29.98,WSW,246,4.0,6.0,97,0.00,,,0.10,,2013-07-04 10:22:00,
2013-07-04 05:34:00,62.0,61.0,29.98,WSW,251,2.0,4.0,97,0.00,,,0.10,,2013-07-04 10:34:00,
2013-07-04 05:43:00,62.0,61.0,29.98,WSW,256,0.0,5.0,97,0.00,,,0.10,,2013-07-04 10:43:00,
2013-07-04 05:53:00,62.0,61.0,29.98,WSW,256,0.0,5.0,97,0.00,,,0.10,,2013-07-04 10:53:00,
2013-07-04 06:02:00,62.0,61.0,29.98,WSW,256,0.0,0.0,97,0.00,,,0.10,,2013-07-04 11:02:00,
2013-07-04 06:11:00,62.0,61.0,29.98,WSW,256,0.0,0.0,97,0.00,,,0.10,,2013-07-04 11:11:00,
2013-07-04 06:22:00,62.0,61.0,29.98,WSW,256,2.0,3.0,97,0.00,,,0.10,,2013-07-04 11:22:00,
2013-07-04 06:34:00,62.0,61.0,29.98,WSW,256,2.0,3.0,97,0.00,,,0.10,,2013-07-04 11:34:00,
2013-07-04 06:43:00,62.0,61.0,29.99,WSW,256,1.0,4.0,97,0.00,,,0.10,,2013-07-04 11:43:00,
2013-07-04 06:53:00,62.0,61.0,29.99,WSW,256,2.0,3.0,97,0.00,,,0.10,,2013-07-04 11:53:00,
2013-07-04 07:02:00,62.0,61.0,29.99,WSW,256,3.0,3.0,97,0.00,,,0.10,,2013-07-04 12:02:00,
2013-07-04 07:12:00,62.0,61.0,29.99,WSW,256,3.0,3.0,97,0.00,,,0.10,,2013-07-04 12:12:00,
2013-07-04 07:22:00,62.0,61.0,29.99,WSW,245,3.0,3.0,97,0.00,,,0.10,,2013-07-04 12:22:00,
2013-07-04 07:33:00,62.0,61.0,29.99,WSW,245,3.0,3.0,97,0.00,,,0.10,,2013-07-04 12:33:00,
2013-07-04 07:43:00,62.0,61.0,29.99,WSW,245,3.0,3.0,97,0.00,,,0.10,,2013-07-04 12:43:00,
2013-07-04 07:52:00,62.0,61.0,29.99,WSW,245,3.0,3.0,97,0.00,,,0.10,,2013-07-04 12:52:00,
2013-07-04 08:02:00,62.0,61.0,29.99,WSW,245,3.0,3.0,97,0.00,,,0.10,,2013-07-04 13:02:00,
2013-07-04 08:12:00,64.0,62.0,30.01,WSW,245,3.0,5.0,93,0.00,,,0.10,,2013-07-04 13:12:00,
2013-07-04 08:23:00,64.0,61.0,30.01,WSW,246,0.0,4.0,91,0.00,,,0.10,,2013-07-04 13:23:00,
2013-07-04 08:33:00,64.0,61.0,30.01,WSW,244,0.0,3.0,90,0.00,,,0.10,,2013-07-04 13:33:00,
2013-07-04 08:43:00,64.0,61.0,30.01,WSW,244,0.0,3.0,90,0.00,,,0.10,,2013-07-04 13:43:00,
2013-07-04 08:53:00,65.0,61.0,30.01,WSW,244,0.0,3.0,88,0.00,,,0.10,,2013-07-04 13:53:00,
2013-07-04 09:02:00,65.0,61.0,30.01,WSW,244,0.0,3.0,88,0.00,,,0.10,,2013-07-04 14:02:00,
2013-07-04 09:11:00,66.0,61.0,30.01,WSW,244,3.0,3.0,83,0.00,,,0.10,,2013-07-04 14:11:00,
2013-07-04 09:22:00,67.0,61.0,30.01,WSW,244,2.0,3.0,82,0.00,,,0.10,,2013-07-04 14:22:00,
2013-07-04 09:33:00,67.0,61.0,30.01,WSW,244,2.0,3.0,82,0.00,,,0.10,,2013-07-04 14:33:00,
2013-07-04 09:43:00,68.0,61.0,30.01,WSW,244,3.0,3.0,78,0.00,,,0.10,,2013-07-04 14:43:00,
2013-07-04 09:53:00,68.0,61.0,30.01,WSW,244,3.0,3.0,78,0.00,,,0.10,,2013-07-04 14:53:00,
2013-07-04 10:02:00,69.0,59.0,30.00,WSW,244,2.0,2.0,71,0.00,,,0.10,,2013-07-04 15:02:00,
2013-07-04 10:11:00,70.0,59.0,30.00,WSW,244,3.0,4.0,69,0.00,,,0.10,,2013-07-04 15:11:00,
2013-07-04 10:23:00,70.0,59.0,30.00,WSW,244,3.0,4.0,69,0.00,,,0.10,,2013-07-04 15:23:00,
2013-07-04 10:33:00,72.0,60.0,29.99,WSW,244,2.0,2.0,65,0.00,,,0.10,,2013-07-04 15:33:00,
2013-07-04 10:43:00,72.0,60.0,29.99,WSW,244,2.0,2.0,65,0.00,,,0.10,,2013-07-04 15:43:00,
2013-07-04 10:52:00,72.0,58.0,29.99,WSW,245,3.0,3.0,62,0.00,,,0.10,,2013-07-04 15:52:00,
2013-07-04 11:02:00,73.0,58.0,29.99,SSE,155,3.0,3.0,59,0.00,,,0.10,,2013-07-04 16:02:00,
2013-07-04 11:11:00,75.0,59.0,29.99,SW,229,3.0,3.0,58,0.00,,,0.10,,2013-07-04 16:11:00,
2013-07-04 11:22:00,75.0,58.0,29.99,South,182,0.0,0.0,56,0.00,,,0.10,,2013-07-04 16:22:00,
2013-07-04 11:33:00,75.0,58.0,29.99,South,182,0.0,0.0,56,0.00,,,0.10,,2013-07-04 16:33:00,
2013-07-04 11:43:00,75.0,57.0,29.99,West,269,2.0,5.0,54,0.00,,,0.10,,2013-07-04 16:43:00,
2013-07-04 11:52:00,75.0,57.0,29.99,West,269,2.0,5.0,54,0.00,,,0.10,,2013-07-04 16:52:00,
2013-07-04 12:01:00,75.0,57.0,29.99,West,269,2.0,5.0,54,0.00,,,0.10,,2013-07-04 17:01:00,
2013-07-04 12:12:00,76.0,57.0,29.99,WSW,252,2.0,2.0,51,0.00,,,0.10,,2013-07-04 17:12:00,
2013-07-04 12:22:00,77.0,57.0,29.99,West,259,0.0,2.0,50,0.00,,,0.10,,2013-07-04 17:22:00,
2013-07-04 12:34:00,77.0,57.0,29.99,West,259,0.0,2.0,50,0.00,,,0.10,,2013-07-04 17:34:00,
2013-07-04 12:43:00,77.0,55.0,29.99,WSW,243,2.0,3.0,46,0.00,,,0.10,,2013-07-04 17:43:00,
2013-07-04 12:53:00,79.0,55.0,29.99,SW,222,0.0,0.0,44,0.00,,,0.10,,2013-07-04 17:53:00,
2013-07-04 13:01:00,79.0,55.0,29.99,SW,222,0.0,0.0,44,0.00,,,0.10,,2013-07-04 18:01:00,
2013-07-04 13:11:00,79.0,56.0,29.99,WNW,286,1.0,4.0,46,0.00,,,0.10,,2013-07-04 18:11:00,
2013-07-04 13:22:00,79.0,56.0,29.99,WNW,286,1.0,4.0,46,0.00,,,0.10,,2013-07-04 18:22:00,
2013-07-04 13:33:00,80.0,56.0,29.98,WSW,246,0.0,2.0,44,0.00,,,0.10,,2013-07-04 18:33:00,
2013-07-04 13:43:00,80.0,56.0,29.98,WSW,246,0.0,2.0,44,0.00,,,0.10,,2013-07-04 18:43:00,
2013-07-04 13:52:00,81.0,55.0,29.98,SSE,158,0.0,0.0,41,0.00,,,0.10,,2013-07-04 18:52:00,
2013-07-04 14:01:00,82.0,55.0,29.98,SSW,202,0.0,0.0,39,0.00,,,0.10,,2013-07-04 19:01:00,
2013-07-04 14:12:00,83.0,55.0,29.97,SSW,200,0.0,0.0,39,0.00,,,0.09,,2013-07-04 19:12:00,
2013-07-04 14:22:00,83.0,55.0,29.97,SSW,200,0.0,0.0,39,0.00,,,0.09,,2013-07-04 19:22:00,
2013-07-04 14:33:00,83.0,55.0,29.97,SSW,200,0.0,0.0,39,0.00,,,0.09,,2013-07-04 19:33:00,
2013-07-04 14:43:00,83.0,58.0,29.97,WSW,242,3.0,3.0,43,0.00,,,0.07,,2013-07-04 19:43:00,
2013-07-04 14:53:00,81.0,55.0,29.97,West,267,3.0,6.0,41,0.00,,,0.07,,2013-07-04 19:53:00,
2013-07-04 15:01:00,81.0,55.0,29.97,West,267,3.0,6.0,41,0.00,,,0.07,,2013-07-04 20:01:00,
2013-07-04 15:11:00,81.0,58.0,29.97,WSW,254,2.0,4.0,45,0.00,,,0.07,,2013-07-04 20:11:00,
2013-07-04 15:22:00,81.0,58.0,29.97,WSW,254,2.0,4.0,45,0.00,,,0.07,,2013-07-04 20:22:00,
2013-07-04 15:33:00,81.0,58.0,29.97,WSW,254,2.0,4.0,45,0.00,,,0.07,,2013-07-04 20:33:00,
2013-07-04 15:42:00,83.0,55.0,29.97,WSW,242,3.0,6.0,39,0.00,,,0.07,,2013-07-04 20:42:00,
2013-07-04 15:53:00,82.0,56.0,29.97,SSE,153,0.0,3.0,41,0.00,,,0.07,,2013-07-04 20:53:00,
2013-07-04 16:01:00,82.0,56.0,29.97,SSE,153,0.0,3.0,41,0.00,,,0.07,,2013-07-04 21:01:00,
2013-07-04 16:11:00,81.0,58.0,29.96,SSE,163,3.0,7.0,45,0.00,,,0.07,,2013-07-04 21:11:00,
2013-07-04 16:22:00,81.0,56.0,29.96,WSW,246,10.0,10.0,42,0.00,,,0.06,,2013-07-04 21:22:00,
2013-07-04 16:32:00,81.0,56.0,29.96,WSW,246,10.0,10.0,42,0.00,,,0.06,,2013-07-04 21:32:00,
2013-07-04 16:43:00,81.0,54.0,29.96,WSW,241,7.0,7.0,39,0.00,,,0.01,,2013-07-04 21:43:00,
2013-07-04 16:52:00,81.0,54.0,29.96,WSW,241,7.0,7.0,39,0.00,,,0.01,,2013-07-04 21:52:00,
2013-07-04 17:02:00,81.0,54.0,29.96,WSW,241,7.0,7.0,39,0.00,,,0.01,,2013-07-04 22:02:00,
2013-07-04 17:12:00,81.0,54.0,29.96,WSW,241,7.0,7.0,39,0.00,,,0.01,,2013-07-04 22:12:00,
2013-07-04 17:22:00,80.0,55.0,29.96,SW,232,4.0,9.0,42,0.00,,,0.00,,2013-07-04 22:22:00,
2013-07-04 17:33:00,80.0,57.0,29.96,WSW,248,3.0,6.0,46,0.00,,,0.00,,2013-07-04 22:33:00,
2013-07-04 17:43:00,80.0,57.0,29.95,WSW,241,4.0,8.0,45,0.00,,,0.00,,2013-07-04 22:43:00,
2013-07-04 17:52:00,80.0,55.0,29.95,WSW,250,0.0,6.0,43,0.00,,,0.00,,2013-07-04 22:52:00,
2013-07-04 18:01:00,80.0,55.0,29.95,WSW,257,3.0,5.0,43,0.00,,,0.00,,2013-07-04 23:01:00,
2013-07-04 18:12:00,81.0,54.0,29.95,SW,229,3.0,6.0,40,0.00,,,0.00,,2013-07-04 23:12:00,
2013-07-04 18:23:00,80.0,56.0,29.95,WSW,252,3.0,5.0,44,0.00,,,0.00,,2013-07-04 23:23:00,
2013-07-04 18:33:00,80.0,56.0,29.95,WSW,252,3.0,5.0,44,0.00,,,0.00,,2013-07-04 23:33:00,
2013-07-04 18:43:00,80.0,56.0,29.95,West,268,3.0,5.0,44,0.00,,,0.00,,2013-07-04 23:43:00,
2013-07-04 18:52:00,80.0,55.0,29.94,WSW,255,3.0,7.0,43,0.00,,,0.00,,2013-07-04 23:52:00,
2013-07-04 19:01:00,80.0,57.0,29.94,WSW,254,0.0,5.0,46,0.00,,,0.00,,2013-07-05 00:01:00,
2013-07-04 19:11:00,80.0,57.0,29.94,WSW,254,0.0,5.0,46,0.00,,,0.00,,2013-07-05 00:11:00,
2013-07-04 19:22:00,80.0,57.0,29.94,SW,215,1.0,3.0,46,0.00,,,0.00,,2013-07-05 00:22:00,
2013-07-04 19:32:00,80.0,57.0,29.94,SW,215,1.0,3.0,46,0.00,,,0.00,,2013-07-05 00:32:00,
2013-07-04 19:43:00,79.0,59.0,29.95,SW,215,0.0,4.0,50,0.00,,,0.00,,2013-07-05 00:43:00,
2013-07-04 19:52:00,79.0,59.0,29.95,SW,215,0.0,4.0,50,0.00,,,0.00,,2013-07-05 00:52:00,
2013-07-04 20:01:00,78.0,59.0,29.94,West,261,0.0,2.0,53,0.00,,,0.00,,2013-07-05 01:01:00,
2013-07-04 20:11:00,78.0,59.0,29.94,West,261,0.0,2.0,53,0.00,,,0.00,,2013-07-05 01:11:00,
2013-07-04 20:22:00,78.0,59.0,29.94,West,261,0.0,2.0,53,0.00,,,0.00,,2013-07-05 01:22:00,
2013-07-04 20:32:00,78.0,59.0,29.94,West,261,0.0,2.0,53,0.00,,,0.00,,2013-07-05 01:32:00,
2013-07-04 20:42:00,78.0,59.0,29.94,West,261,0.0,2.0,53,0.00,,,0.00,,2013-07-05 01:42:00,
2013-07-04 20:52:00,77.0,61.0,29.93,South,191,0.0,1.0,58,0.00,,,0.00,,2013-07-05 01:52:00,
2013-07-04 21:02:00,76.0,62.0,29.93,South,188,2.0,3.0,61,0.00,,,0.00,,2013-07-05 02:02:00,
2013-07-04 21:11:00,76.0,62.0,29.93,South,188,2.0,3.0,61,0.00,,,0.00,,2013-07-05 02:11:00,
2013-07-04 21:21:00,76.0,62.0,29.93,South,188,2.0,3.0,61,0.00,,,0.00,,2013-07-05 02:21:00,
2013-07-04 21:32:00,76.0,62.0,29.93,South,188,2.0,3.0,61,0.00,,,0.00,,2013-07-05 02:32:00,
2013-07-04 21:42:00,76.0,62.0,29.93,South,188,2.0,3.0,61,0.00,,,0.00,,2013-07-05 02:42:00,
2013-07-04 22:02:00,73.0,64.0,29.95,South,171,0.0,3.0,73,0.00,,,0.00,,2013-07-05 03:02:00,
2013-07-04 22:11:00,73.0,64.0,29.95,South,171,0.0,3.0,73,0.00,,,0.00,,2013-07-05 03:11:00,
2013-07-04 22:22:00,73.0,64.0,29.95,South,171,0.0,3.0,73,0.00,,,0.00,,2013-07-05 03:22:00,
2013-07-04 22:32:00,73.0,64.0,29.95,South,171,0.0,3.0,73,0.00,,,0.00,,2013-07-05 03:32:00,
2013-07-04 22:42:00,73.0,64.0,29.95,South,171,0.0,3.0,73,0.00,,,0.00,,2013-07-05 03:42:00,
2013-07-04 23:43:00,71.0,64.0,29.95,SSE,155,3.0,4.0,78,0.00,,,0.00,,2013-07-05 04:43:00,
2013-07-04 23:53:00,71.0,65.0,29.95,SSE,158,0.0,4.0,80,0.00,,,0.00,,2013-07-05 04:53:00,